RADUGA 17 [-]

Last updated on June 24, 2019, 3:40 a.m. UTC

1 16250U 85107A   19174.12897549  .00000125  00000-0  00000+0 0  9999
2 16250  13.6476 339.3880 0008711 148.9569 225.8695  1.00144972126246
UTC
Height (km)
Latitude
Longitude
Inclination
Orbital Period
UTC large
Height (km)
Speed (km/s)
/
Latitude / Longitude
Inclination (degrees)
Orbital Period (minutes)
Azimuth
Elevation
Range (km)
Doppler Factor
iOS Compass Heading
iOS Angle

Next 30 passes for location: Hong Kong

Rise time Rise Azimuth (degrees) Set time Set Azimuth (degrees) Duration Max altitude (degrees)

No matching passes for this satellites